Tracking 18673 objects as of 25-June-2017
HD Live streaming from Space Station
objects crossing your sky now

COSMOS 1174

Track COSMOS 1174 now!
10-day predictions
COSMOS 1174 is classified as:


NORAD ID: 11765
Int'l Code: 1980-030A
Perigee: 370.8 km
Apogee: 1,171.4 km
Inclination: 66.1 °
Period: 100.1 minutes
Semi major axis: 7142 km
RCS: 4.5129 m2 (large)
Launch date: April 18, 1980
Source: Commonwealth of Independent States (former USSR) (CIS)
Launch site: TYURATAM MISSILE AND SPACE COMPLEX (TTMTR)
Your satellite tracking list
Your tracking list is empty





NASA's NSSDC Master Catalog

Two Line Element Set (TLE):
1 11765U 80030A   17175.60004864 +.00000168 +00000-0 +18312-4 0  9994
2 11765 066.0865 270.8619 0560460 307.8569 047.3056 14.38356757905384
Source of the keplerian elements: AFSPC